Hourly Data Report for July 24, 2021

CARIBOU POINT (AUT)
NOVA SCOTIA
Current Station Operator: ECCC - MSC

45°46'00.000" N
62°41'00.000" W
2.40 m
8200774
71415
WBK

Download Data

Hourly Data (July 2021)
Hourly Data Report for July 24, 2021
TIME
LST
Temp Definition
°C
Dew Point Definition
°C
Rel Hum Definition
%
Precip. Amount Definition
mm

Wind Dir Definition
10's deg

Wind Spd Definition
km/h
Visibility Definition
km
Stn Press Definition
kPa
Hmdx Definition


Wind Chill Definition


Weather Definition


00:00 16.9 14.9 88 0.0 33 20   101.66     LegendNANA
01:00 16.2 13.7 85 0.0 35 18   101.66     LegendNANA
02:00 15.7 13.6 88 0.0 36 11   101.65     LegendNANA
03:00 15.3 13.8 91 0.0 3 7   101.65     LegendNANA
04:00 15.1 13.7 92 0.0 4 8   101.67     LegendNANA
05:00 15.0 13.5 91 0.0 32 7   101.69     LegendNANA
06:00 15.1 13.8 92 0.0 26 4   101.74     LegendNANA
07:00 15.4 14.4 94 0.2 26 4   101.78     LegendNANA
08:00 15.9 14.4 91 0.5 28 7   101.79     LegendNANA
09:00 17.5 15.3 87 0.0 29 9   101.79     LegendNANA
10:00 18.0 15.5 85 0.0 31 11   101.83     LegendNANA
11:00 18.3 14.6 79 0.0 32 11   101.84     LegendNANA
12:00 18.4 14.6 79 0.0 32 12   101.84     LegendNANA
13:00 19.0 15.9 82 0.0 33 11   101.82     LegendNANA
14:00 19.7 15.9 79 0.0 31 9   101.81     LegendNANA
15:00 19.1 14.2 73 0.0 33 8   101.79     LegendNANA
16:00 19.7 14.6 72 0.0 2 5   101.73     LegendNANA
17:00 20.4 15.4 73 0.0 12 7   101.70 25   LegendNANA
18:00 19.0 15.3 79 0.0 13 12   101.70     LegendNANA
19:00 18.3 15.6 84 0.0 11 14   101.71     LegendNANA
20:00 17.6 15.7 89 0.0 11 12   101.72     LegendNANA
21:00 17.3 15.7 91 0.0 11 14   101.74     LegendNANA
22:00 17.3 16.1 93 0.0 11 13   101.73     LegendNANA
23:00 16.2 14.5 90 0.0 22 6   101.72     LegendNANA

Notes on Data Quality.

Legend

  • E = Estimated
  • M = Missing
  • NA = Not Available*
  • [empty] = Indicates an unobserved value
Date modified: